SWA1522 KSJC-KONT

Flight info

Callsign SWA1522
Flight time N/A
Altitude 33000
Route SJC3 AVE EHF ZIGGY8
Aircraft B732/M-SDFGHRWY/S

Departure

Time 2026-05-05 04:58
Airport Norman Y. Mineta San Jose International Airport (KSJC)

Arrival

Time N/A
Airport Ontario International Airport (KONT)
Time Latitude Longitude Altitude Speed Heading
2026-05-05 04:30 37.36682 -121.92744 50 ft 0 kts 49°
2026-05-05 04:48 37.36679 -121.92748 49 ft 2 kts 49°
2026-05-05 04:48 37.36669 -121.92762 50 ft 2 kts 48°
2026-05-05 04:48 37.36659 -121.92776 51 ft 2 kts 48°
2026-05-05 04:48 37.36649 -121.92791 51 ft 2 kts 65°
2026-05-05 04:49 37.36646 -121.92809 52 ft 2 kts 92°
2026-05-05 04:49 37.36650 -121.92827 52 ft 2 kts 119°
2026-05-05 04:49 37.36656 -121.92837 51 ft 1 kts 138°
2026-05-05 04:49 37.36661 -121.92841 51 ft 0 kts 139°
2026-05-05 04:52 37.36655 -121.92835 51 ft 6 kts 139°
2026-05-05 04:52 37.36604 -121.92780 52 ft 10 kts 139°
2026-05-05 04:52 37.36551 -121.92722 53 ft 9 kts 139°
2026-05-05 04:52 37.36498 -121.92693 54 ft 8 kts 191°
2026-05-05 04:53 37.36440 -121.92694 54 ft 9 kts 150°
2026-05-05 04:53 37.36388 -121.92639 55 ft 10 kts 138°
2026-05-05 04:53 37.36324 -121.92569 56 ft 13 kts 139°
2026-05-05 04:53 37.36249 -121.92486 57 ft 14 kts 139°
2026-05-05 04:54 37.36172 -121.92402 58 ft 14 kts 139°
2026-05-05 04:54 37.36096 -121.92318 59 ft 14 kts 139°
2026-05-05 04:54 37.36021 -121.92237 60 ft 14 kts 139°
2026-05-05 04:54 37.35947 -121.92158 60 ft 13 kts 139°
2026-05-05 04:55 37.35880 -121.92082 61 ft 12 kts 137°
2026-05-05 04:55 37.35819 -121.92013 62 ft 11 kts 139°
2026-05-05 04:55 37.35793 -121.91985 62 ft 0 kts 139°
2026-05-05 04:56 37.35793 -121.91984 62 ft 0 kts 139°
2026-05-05 04:57 37.35763 -121.91973 63 ft 9 kts 187°
2026-05-05 04:57 37.35706 -121.92037 63 ft 11 kts 246°
2026-05-05 04:57 37.35769 -121.92129 62 ft 26 kts 317°
2026-05-05 04:57 37.36068 -121.92452 58 ft 90 kts 318°
2026-05-05 04:58 37.36706 -121.93153 50 ft 151 kts 318°
2026-05-05 04:58 37.37578 -121.94109 404 ft 170 kts 319°
2026-05-05 04:58 37.38509 -121.95086 979 ft 182 kts 321°
2026-05-05 04:58 37.39479 -121.96096 1789 ft 180 kts 318°
2026-05-05 04:59 37.40405 -121.97166 2441 ft 188 kts 327°
2026-05-05 04:59 37.41699 -121.97551 2997 ft 202 kts 11°
2026-05-05 04:59 37.42892 -121.96716 3763 ft 205 kts 52°
2026-05-05 04:59 37.43385 -121.95084 4508 ft 207 kts 92°
2026-05-05 05:00 37.42913 -121.93389 5248 ft 209 kts 131°
2026-05-05 05:00 37.41906 -121.92123 6062 ft 205 kts 136°
2026-05-05 05:00 37.40865 -121.90859 6579 ft 219 kts 134°
2026-05-05 05:00 37.39742 -121.89375 6656 ft 253 kts 132°
2026-05-05 05:01 37.38553 -121.87660 7269 ft 263 kts 130°
2026-05-05 05:01 37.37355 -121.85860 7745 ft 279 kts 128°
2026-05-05 05:01 37.36114 -121.83958 8570 ft 281 kts 128°
2026-05-05 05:01 37.34875 -121.82044 9219 ft 289 kts 127°
2026-05-05 05:02 37.33592 -121.80056 9938 ft 293 kts 127°
2026-05-05 05:02 37.32281 -121.78088 10678 ft 296 kts 130°
2026-05-05 05:02 37.30772 -121.76299 11390 ft 300 kts 136°
2026-05-05 05:02 37.29185 -121.74585 12119 ft 302 kts 136°
2026-05-05 05:03 37.27609 -121.72859 12775 ft 305 kts 135°
2026-05-05 05:03 37.26003 -121.71064 13356 ft 310 kts 134°
2026-05-05 05:03 37.24361 -121.69191 13547 ft 329 kts 134°
2026-05-05 05:03 37.22652 -121.67226 13915 ft 340 kts 134°
2026-05-05 05:04 37.20892 -121.65221 14498 ft 344 kts 134°
2026-05-05 05:04 37.19086 -121.63163 14909 ft 354 kts 134°
2026-05-05 05:04 37.17259 -121.61095 15555 ft 355 kts 134°
2026-05-05 05:04 37.15413 -121.59014 16195 ft 356 kts 134°
2026-05-05 05:05 37.13573 -121.56955 16792 ft 357 kts 134°
2026-05-05 05:05 37.11721 -121.54874 17385 ft 358 kts 133°
2026-05-05 05:05 37.09857 -121.52782 17892 ft 361 kts 134°
2026-05-05 05:05 37.07999 -121.50663 18381 ft 364 kts 133°
2026-05-05 05:06 37.06140 -121.48537 18891 ft 365 kts 132°
2026-05-05 05:06 37.04386 -121.46255 19401 ft 364 kts 127°
2026-05-05 05:06 37.02683 -121.43883 19907 ft 365 kts 126°
2026-05-05 05:06 37.00974 -121.41501 20373 ft 367 kts 126°
2026-05-05 05:07 36.99264 -121.39137 20835 ft 369 kts 126°
2026-05-05 05:07 36.97527 -121.36743 21240 ft 372 kts 126°
2026-05-05 05:07 36.95779 -121.34341 21677 ft 374 kts 126°
2026-05-05 05:07 36.94026 -121.31933 22151 ft 375 kts 126°
2026-05-05 05:08 36.92273 -121.29530 22513 ft 379 kts 126°
2026-05-05 05:08 36.90491 -121.27090 22956 ft 380 kts 126°
2026-05-05 05:08 36.88698 -121.24639 23513 ft 378 kts 125°
2026-05-05 05:08 36.86914 -121.22208 23730 ft 385 kts 125°
2026-05-05 05:09 36.85090 -121.19704 24024 ft 389 kts 126°
2026-05-05 05:09 36.83275 -121.17222 24504 ft 388 kts 125°
2026-05-05 05:09 36.81444 -121.14722 24822 ft 391 kts 126°
2026-05-05 05:09 36.79609 -121.12213 25231 ft 392 kts 125°
2026-05-05 05:10 36.77770 -121.09712 25629 ft 393 kts 125°
2026-05-05 05:10 36.75929 -121.07200 25805 ft 399 kts 125°
2026-05-05 05:10 36.74044 -121.04649 26234 ft 399 kts 125°
2026-05-05 05:10 36.72156 -121.02117 26616 ft 399 kts 126°
2026-05-05 05:11 36.70254 -120.99567 26933 ft 401 kts 125°
2026-05-05 05:11 36.68332 -120.96987 27199 ft 404 kts 125°
2026-05-05 05:11 36.66414 -120.94391 27423 ft 408 kts 125°
2026-05-05 05:11 36.64444 -120.91833 27805 ft 410 kts 128°
2026-05-05 05:12 36.62383 -120.89399 28070 ft 414 kts 130°
2026-05-05 05:12 36.60272 -120.86969 28419 ft 414 kts 130°
2026-05-05 05:12 36.58116 -120.84525 28622 ft 417 kts 130°
2026-05-05 05:12 36.55959 -120.82070 28881 ft 418 kts 130°
2026-05-05 05:13 36.53800 -120.79600 28983 ft 422 kts 130°
2026-05-05 05:13 36.51657 -120.77117 29184 ft 422 kts 130°
2026-05-05 05:13 36.49507 -120.74606 29358 ft 423 kts 130°
2026-05-05 05:13 36.47351 -120.72069 29491 ft 424 kts 130°
2026-05-05 05:14 36.45212 -120.69559 29615 ft 426 kts 130°
2026-05-05 05:14 36.40845 -120.64471 29691 ft 430 kts 130°
2026-05-05 05:15 36.36441 -120.59361 29897 ft 430 kts 131°
2026-05-05 05:15 36.32028 -120.54250 30045 ft 431 kts 131°
2026-05-05 05:16 36.27586 -120.49138 30179 ft 431 kts 131°
2026-05-05 05:16 36.23186 -120.44052 30552 ft 424 kts 131°
2026-05-05 05:16 36.21088 -120.41619 31182 ft 412 kts 132°
2026-05-05 05:17 36.18970 -120.39149 31520 ft 410 kts 132°
2026-05-05 05:17 36.16895 -120.36717 31798 ft 407 kts 134°
2026-05-05 05:17 36.14876 -120.34305 32091 ft 405 kts 135°
2026-05-05 05:18 36.11406 -120.30225 32250 ft 412 kts 136°
2026-05-05 05:18 36.07267 -120.25568 32439 ft 417 kts 137°
2026-05-05 05:18 36.05106 -120.23179 32597 ft 418 kts 137°
2026-05-05 05:19 36.02934 -120.20773 32743 ft 418 kts 138°
2026-05-05 05:19 36.00765 -120.18364 32881 ft 418 kts 138°
2026-05-05 05:19 35.98599 -120.15931 32953 ft 421 kts 137°
2026-05-05 05:20 35.94284 -120.11007 32986 ft 426 kts 137°
2026-05-05 05:20 35.89918 -120.05995 33002 ft 430 kts 137°
2026-05-05 05:21 35.85534 -120.00990 32992 ft 433 kts 137°
2026-05-05 05:21 35.81670 -119.95312 32990 ft 434 kts 123°
2026-05-05 05:22 35.78939 -119.88611 33012 ft 436 kts 110°
2026-05-05 05:22 35.77288 -119.81412 33000 ft 437 kts 107°
2026-05-05 05:23 35.75246 -119.74273 32985 ft 437 kts 115°
2026-05-05 05:23 35.72554 -119.67551 32999 ft 438 kts 120°
2026-05-05 05:24 35.69591 -119.61013 32993 ft 439 kts 121°
2026-05-05 05:24 35.66665 -119.54390 33004 ft 440 kts 120°
2026-05-05 05:25 35.63856 -119.47672 32994 ft 441 kts 119°
2026-05-05 05:25 35.61121 -119.40890 32990 ft 442 kts 119°
2026-05-05 05:26 35.58403 -119.34109 32989 ft 442 kts 120°
2026-05-05 05:26 35.55697 -119.27414 32990 ft 442 kts 120°
2026-05-05 05:27 35.53771 -119.22701 32981 ft 442 kts 120°
2026-05-05 05:27 35.50098 -119.13695 32993 ft 443 kts 120°
2026-05-05 05:28 35.47008 -119.07153 32988 ft 437 kts 131°
2026-05-05 05:28 35.42751 -119.02080 32936 ft 421 kts 155°
2026-05-05 05:29 35.40153 -119.00390 33086 ft 415 kts 157°
2026-05-05 05:29 35.37590 -118.98731 32956 ft 422 kts 155°
2026-05-05 05:29 35.32506 -118.95104 32998 ft 409 kts 155°
2026-05-05 05:30 35.30109 -118.93362 32966 ft 398 kts 155°
2026-05-05 05:30 35.27771 -118.91652 32945 ft 384 kts 155°
2026-05-05 05:30 35.25553 -118.89960 32908 ft 370 kts 150°
2026-05-05 05:30 35.23517 -118.87978 32529 ft 373 kts 144°
2026-05-05 05:31 35.21658 -118.85680 31491 ft 397 kts 137°
2026-05-05 05:31 35.19891 -118.82956 30242 ft 419 kts 132°
2026-05-05 05:31 35.18071 -118.80207 29519 ft 415 kts 137°
2026-05-05 05:31 35.16096 -118.77708 28749 ft 413 kts 142°
2026-05-05 05:32 35.13894 -118.75427 27932 ft 410 kts 148°
2026-05-05 05:32 35.11610 -118.73403 27300 ft 405 kts 150°
2026-05-05 05:32 35.09296 -118.71521 26668 ft 400 kts 152°
2026-05-05 05:32 35.06988 -118.69630 26139 ft 396 kts 147°
2026-05-05 05:33 35.04905 -118.67451 25542 ft 396 kts 140°
2026-05-05 05:33 35.03033 -118.64956 24983 ft 393 kts 134°
2026-05-05 05:33 35.01321 -118.62363 24387 ft 391 kts 132°
2026-05-05 05:33 34.99674 -118.59747 23788 ft 388 kts 131°
2026-05-05 05:34 34.98035 -118.57147 23148 ft 384 kts 131°